Saltar para o conteúdo principal

Figueira da Foz, Vila Verde

ID 1210713 · 40.1398, -8.8059 mapa

Última leitura · 2026-05-09 19:00 (Europe/Lisbon)

Temperatura
16.9 °C
Humidade
Pressão
Precipitação
0.0 mm
Radiação
Velocidade do vento
11.9 km/h
Direcção do vento
SE · Sudeste

Histórico de 24 horas

Hora (Europe/Lisbon) Temperatura Humidade Pressão Chuva Vento Direcção
2026-05-09 19:00 16.9 °C 0.0 mm 11.9 km/h SE
2026-05-09 18:00 17.3 °C 0.0 mm 24.1 km/h S
2026-05-09 17:00 17.9 °C 0.0 mm 23.0 km/h SW
2026-05-09 16:00 17.9 °C 0.0 mm 28.1 km/h SW
2026-05-09 15:00 17.7 °C 0.7 mm 19.1 km/h S
2026-05-09 14:00 18.2 °C 0.0 mm 14.0 km/h SW
2026-05-09 13:00 17.0 °C 0.0 mm 22.3 km/h S
2026-05-09 12:00 16.8 °C 1.0 mm 12.6 km/h SW
2026-05-09 11:00 16.1 °C 0.0 mm 20.9 km/h SE
2026-05-09 10:00 14.3 °C 0.3 mm 19.1 km/h SE
2026-05-09 09:00 13.4 °C 2.9 mm 14.0 km/h SE
2026-05-09 08:00 13.2 °C 1.1 mm 5.4 km/h E
2026-05-09 07:00 13.4 °C 0.4 mm 14.8 km/h E
2026-05-09 06:00 13.1 °C 0.5 mm 11.9 km/h SE
2026-05-09 05:00 13.8 °C 0.5 mm 15.1 km/h SE
2026-05-09 04:00 14.1 °C 0.0 mm 16.9 km/h SE
2026-05-09 03:00 13.8 °C 0.0 mm 11.9 km/h SE
2026-05-09 02:00 13.8 °C 0.0 mm 14.0 km/h SE
2026-05-09 01:00 13.7 °C 0.0 mm 11.5 km/h SE
2026-05-09 00:00 13.9 °C 0.7 mm 8.6 km/h SE
2026-05-08 23:00 14.5 °C 2.0 mm 11.9 km/h E
2026-05-08 22:00 15.1 °C 0.3 mm 13.0 km/h SE
2026-05-08 21:00 16.1 °C 0.0 mm 4.3 km/h NE
2026-05-08 20:00 17.3 °C 0.0 mm 4.0 km/h NE